Regional Weather Roundup
Issued by NWS Charleston, SC

Current Version | Previous Version | Graphics & Text | Print | Product List | Glossary On
Versions: 1 2 3 4 5 6 7 8 9 10 11 12 13 14 15 16 17 18 19 20 21 22 23 24 25 26 27 28 29 30 31 32 33 34 35 36 37 38 39 40 41 42 43 44 45 46 47 48 49 50
000 ASUS42 KCHS 190225 RWRCHS REGIONAL WEATHER ROUNDUP NATIONAL WEATHER SERVICE CHARLESTON SC 900 PM EST THU DEC 18 2014 NOTE: "FAIR" INDICATES FEW OR NO CLOUDS BELOW 12,000 FEET WITH NO SIGNIFICANT WEATHER AND/OR OBSTRUCTIONS TO VISIBILITY. NOT ALL STATIONS ARE QUALITY CONTROLLED BY THE NATIONAL WEATHER SERVICE. USE DATA WITH CAUTION...ESPECIALLY DEWPOINT OBSERVATIONS. SCZ027-030-031-034>040-042>050-190300- ...SOUTHEAST SOUTH CAROLINA... CITY SKY/WX TMP DP RH WIND PRES REMARKS N CHARLESTON MOCLDY 50 45 83 CALM 30.11S WATERFRONT PRK N/A 52 N/A N/A CALM N/A MOUNT PLEASANT MOCLDY 45 45 100 CALM 30.12R PINOPOLIS N/A 54 45 71 MISG 30.01S MONCKS CORNER FAIR 45 41 87 CALM 30.11R SUMMERVILLE NOT AVBL BEAUFORT MCAS PTCLDY 49 45 86 CALM 30.11S BEAUFORT ARPT FAIR 46 46 100 CALM 30.10F HILTON HEAD IS CLEAR 46 45 93 CALM 30.12F WALTERBORO PTCLDY 45 N/A N/A CALM 30.11S ALLENDALE CLOUDY 46 43 87 CALM 30.10S ...SOUTHERN MIDLANDS AND PEE DEE... CITY SKY/WX TMP DP RH WIND PRES REMARKS GEORGETOWN NOT AVBL KINGSTREE NOT AVBL ORANGEBURG FAIR 45 39 79 CALM 30.10S BARNWELL N/A 43 41 93 CALM 30.11S AIKEN FAIR 43 41 93 CALM 30.13S MANNING NOT AVBL COLUMBIA MOCLDY 47 40 76 SW3 30.10R SUMTER PTCLDY 42 35 77 CALM 30.08S FLORENCE CLEAR 42 34 73 CALM 30.10R MYRTLE BEACH CLEAR 43 37 81 CALM 30.12S N MYRTLE BEACH CLEAR 40 38 93 CALM 30.10S $$ GAZ063-065-086>088-099>101-113>116-118-119-134>141-150-190300- ...SOUTHEAST GEORGIA... CITY SKY/WX TMP DP RH WIND PRES REMARKS SAVANNAH ARPT MOCLDY 46 39 76 CALM 30.12S HUNTER AAF CLEAR 47 44 91 CALM 30.10R FORT STEWART CLEAR 44 40 86 CALM 30.10S STATESBORO PTCLDY 43 43 100 CALM 30.11R SYLVANIA PTCLDY 46 44 93 CALM 30.11S CLAXTON FAIR 43 41 93 CALM 30.12R ...CSRA...CENTRAL AND FAR SOUTHEAST GEORGIA... CITY SKY/WX TMP DP RH WIND PRES REMARKS THOMSON CLEAR 45 44 94 CALM 30.15S AUGUSTA-BUSH CLEAR 42 39 89 CALM 30.11R AUGUSTA-DANIEL CLEAR 52 40 63 CALM 30.11R SWAINSBORO FAIR 45 43 93 CALM 30.11F VIDALIA PTCLDY 46 41 81 CALM 30.12R EASTMAN FAIR 43 40 91 CALM 30.15R HAZLEHURST FAIR 47 42 81 CALM 30.11S ALMA PTCLDY 46 40 79 CALM 30.12R WAYCROSS PTCLDY 50 45 83 CALM 30.12S JESUP FAIR 45 43 93 CALM 30.12S BAXLEY FAIR 46 43 87 CALM 30.12R BRUNSWICK PTCLDY 48 43 81 CALM 30.13R SAINT SIMONS MOCLDY 51 44 77 W3 30.12S $$ SCZ027-028-034-036>038-045-046-048>050-GAZ119-141-190300- ...LAKE AND SUPPLEMENTAL COASTAL OBSERVATIONS... STATION/POSITION TIME TEMP WIND PRES WAVE SWELL AIR SEA DIR/SP/G HT/PER HT/PER/DIR (UTC) (F) (DEG/KT/KT) (MB) (FT/S) (FT/S/D) UPR LAKE MARION NOT AVBL WINYAH BAY 0200 43 320/ 1 1018.0F LAKE MURRAY 0100 51 CALM 1018.6R ACE BASIN NERRS 0200 45 CALM 1019.0S FORT PULASKI 0200 51 56 240/ 1/ 2 1020.0F SAPELO ISLAND 0200 48 CALM 1020.0S $$ ANZ835-935-AMZ111-154-330-350-352-354-370-450-454-472-190300- ...C-MAN AND BUOY OBSERVATIONS... STATION/POSITION TIME TEMP WIND PRES WAVE SWELL AIR SEA DIR/SP/G HT/PER HT/PER/DIR (UTC) (F) (DEG/KT/KT) (MB) (FT/S) (FT/S/D) BUOY 41004 0200 61 72 280/ 6/ 10 1018.8R 2/ 5 2/ 5 BUOY 41008 0200 58 57 270/ 8/ 8 1019.9R 1/11 FOLLY BEACH CMAN 0200 51 290/ 3/ 3 1020.3R CAPERS NEARSHORE 0100 54 50/ 4/ 8 N/A FRIPP NEARSHORE NOT AVBL STATION/POSITION TIME TEMP WIND PRES WAVE SWELL AIR SEA DIR/SP/G HT/PER HT/PER/DIR (UTC) (F) (DEG/KT/KT) (MB) (FT/S) (FT/S/D) 5E ST. MARYS GA 0200 61 N/A 1/11 FRYING PAN BUOY 0200 57 64 10/ 6/ 8 1020.0R 2/10 2/150/10 BUOY 41025 0200 46 1019.7F 3/ 7 CAPE LOOKOUT NC 0200 47 10/ 6/ 6 1019.2S BUOY 41002 0102 68 72 270/ 2/ 4 1018.1F 3/ 6 3/230/ 6 BUOY 41010 0200 70 76 300/ 6/ 8 1019.1R 2/11 2/ 80/11 ST AUGUSTINE FL 0200 56 270/ 3/ 4 1020.6R $$

USA.gov is the U.S. government's official web portal to all federal, state and local government web resources and services.